Regional Weather Roundup
Issued by NWS Goodland, KS

Home | Current Version | Previous Version | Graphics & Text | Print | Product List | Glossary On
Versions: 1 2 3 4 5 6 7 8 9 10 11 12 13 14 15 16 17 18 19 20 21 22 23 24 25 26 27 28 29 30 31 32 33 34 35 36 37 38 39 40 41 42 43 44 45 46 47 48 49 50
000
ASUS43 KGLD 272059
RWRGLD

GOODLAND FORECAST AREA HOURLY WEATHER ROUNDUP
NATIONAL WEATHER SERVICE GOODLAND KS
300 PM MDT MON MAR 27 2017

...OFFICIAL OBSERVATIONS...

CITY           SKY/WX    TMP DP  RH WIND       PRES   REMARKS
GOODLAND KS    SUNNY     65  37  35 S13       29.86F
HILL CITY KS   SUNNY     62  45  53 SE9       29.91F
IMPERIAL NEB   SUNNY     64  37  36 VRB7      29.86F
MCCOOK NEB     MOSUNNY   65  42  43 SE8       29.87F
AKRON CO       MOSUNNY   62  30  29 S15G21    29.84F
BURLINGTON CO  MOSUNNY   62  39  42 S14       29.87F
LIMON CO       PTSUNNY   58  35  42 S16G22    29.87F
$$

...UNOFFICIAL OBSERVATIONS...

CITY           SKY/WX    TMP DP  RH WIND       PRES   REMARKS
LENORA KS        N/A     64  32  30 CALM        N/A
NORTON KS      SUNNY     55  43  62 SE6       29.90F
SHARON SPRINGS   N/A     64  43  47 SW6G18      N/A
TRENTON NEB      N/A     64  32  30 CALM        N/A
YUMA CO        FAIR      63  32  31 S9G18     29.84F
$$




USA.gov is the U.S. government's official web portal to all federal, state and local government web resources and services.